Date String (YYYY-MM-DD hh:mm:ss) UTC,Instrument flags,absolute air pressure of the measurement (hPa),sample flow rate (lpm),inlet stack bypass flow (lpm),air temperature of the measurement (°C),ambient temperature measured by the external sensor (°C),aerosol sample conditioner tube jacket temperature (°C),OPC LED temperature (°C),internal box temperature (°C),relative humidity of the measurement (%),span deviation,mass concentration of particles derived from Lorenz-Mie calculation of OPC scattering (μg/m³),mass concentration of particles derived from Lorenz-Mie calculation of OPC scattering (μg/m³),mass concentration of particles derived from Lorenz-Mie calculation of OPC scattering (μg/m³)
DateTimeUTC,F1_M11,P_M11,Q1_M11,Q2_M11,T1_M11,T2_M11,T3_M11,T4_M11,T5_M11,U1_M11,ZSPAN_M11,X2_M11,X0_M11,X1_M11
2023-10-08 00:00:00,SystemResetWarning,0835.0,5.00,000.00,028.3,024.6,000.0,036.7,029.7,14.5,0000.0,0002.80,0009.66,0001.99
2023-10-08 00:01:00,SystemResetWarning,0835.0,5.00,000.00,028.2,025.1,000.0,036.7,029.7,14.5,0000.0,0002.85,0010.24,0002.00
2023-10-08 00:02:00,SystemResetWarning,0835.0,4.99,000.00,028.2,025.5,000.0,036.7,029.8,14.5,0000.0,0002.88,0010.22,0002.01
2023-10-08 00:03:00,SystemResetWarning,0835.0,4.99,000.00,028.2,025.9,000.0,036.7,029.9,14.6,0000.0,0002.89,0010.05,0002.02
2023-10-08 00:04:00,SystemResetWarning,0835.0,5.00,000.00,028.3,026.3,000.0,036.7,030.0,14.7,0000.0,0002.91,0011.08,0002.03
2023-10-08 00:05:00,SystemResetWarning,0835.0,5.00,000.00,028.3,026.6,000.0,036.7,030.0,14.6,0000.0,0002.95,0011.22,0002.02
2023-10-08 00:06:00,SystemResetWarning,0835.1,5.00,000.00,028.3,026.8,000.0,036.7,030.1,14.7,0000.0,0002.95,0011.08,0002.03
2023-10-08 00:07:00,SystemResetWarning,0835.0,5.01,000.00,028.4,027.0,000.0,036.7,030.2,14.7,0000.0,0002.99,0011.29,0002.03
2023-10-08 00:08:00,SystemResetWarning,0835.0,5.00,000.00,028.4,027.2,000.0,036.7,030.2,14.7,0000.0,0003.01,0011.65,0002.01
2023-10-08 00:09:00,SystemResetWarning,0835.0,4.98,000.00,028.5,027.4,000.0,036.8,030.3,14.6,0000.0,0002.96,0010.60,0001.98
2023-10-08 00:10:00,SystemResetWarning,0835.0,4.99,000.00,028.5,027.5,000.0,036.8,030.4,14.6,0000.0,0002.96,0009.98,0001.97
2023-10-08 00:11:00,SystemResetWarning,0835.1,5.01,000.00,028.6,027.6,000.0,036.8,030.4,14.5,0000.0,0002.95,0010.86,0001.97
2023-10-08 00:12:00,SystemResetWarning,0835.1,5.01,000.00,028.6,027.7,000.0,036.8,030.5,14.5,0000.0,0002.86,0010.36,0001.95
2023-10-08 00:13:00,SystemResetWarning,0835.1,4.98,000.00,028.7,027.0,000.0,036.8,030.5,14.5,0000.0,0002.77,0010.29,0001.94
2023-10-08 00:14:00,SystemResetWarning,0835.0,5.01,000.00,028.6,025.3,000.0,036.8,030.3,14.5,0000.0,0002.71,0010.55,0001.92
2023-10-08 00:15:00,SystemResetWarning,0835.0,5.01,000.00,028.5,025.0,000.0,036.8,030.1,14.6,0000.0,0002.64,0009.43,0001.92
2023-10-08 00:16:00,SystemResetWarning,0835.0,4.99,000.00,028.4,025.2,000.0,036.8,029.9,14.8,0000.0,0002.66,0009.51,0001.91
2023-10-08 00:17:00,SystemResetWarning,0835.0,5.00,000.00,028.4,025.5,000.0,036.8,029.9,14.9,0000.0,0002.71,0009.48,0001.90
2023-10-08 00:18:00,SystemResetWarning,0835.0,5.00,000.00,028.4,025.9,000.0,036.8,030.0,15.0,0000.0,0002.68,0009.33,0001.91
2023-10-08 00:19:00,SystemResetWarning,0835.0,5.01,000.00,028.4,026.2,000.0,036.8,030.1,15.0,0000.0,0002.67,0009.27,0001.92
2023-10-08 00:20:00,SystemResetWarning,0835.0,5.00,000.00,028.4,026.5,000.0,036.8,030.1,15.0,0000.0,0002.67,0008.88,0001.95
2023-10-08 00:21:00,SystemResetWarning,0835.0,4.99,000.00,028.5,026.8,000.0,036.8,030.2,14.9,0000.0,0002.65,0008.74,0001.95
2023-10-08 00:22:00,SystemResetWarning,0835.1,5.00,000.00,028.5,027.0,000.0,036.8,030.3,14.9,0000.0,0002.63,0007.51,0001.95
2023-10-08 00:23:00,SystemResetWarning,0835.1,5.00,000.00,028.5,027.2,000.0,036.8,030.3,14.9,0000.0,0002.66,0007.81,0001.96
2023-10-08 00:24:00,SystemResetWarning,0835.2,5.00,000.00,028.6,027.4,000.0,036.9,030.4,14.8,0000.0,0002.66,0007.69,0001.96
2023-10-08 00:25:00,SystemResetWarning,0835.1,5.00,000.00,028.6,027.5,000.0,036.9,030.4,14.6,0000.0,0002.68,0007.33,0001.96
2023-10-08 00:26:00,SystemResetWarning,0835.1,5.00,000.00,028.7,027.7,000.0,036.9,030.5,14.5,0000.0,0002.66,0007.06,0001.96
2023-10-08 00:27:00,SystemResetWarning,0835.1,5.00,000.00,028.7,027.5,000.0,036.9,030.6,14.6,0000.0,0002.61,0007.33,0001.96
2023-10-08 00:28:00,SystemResetWarning,0835.1,4.99,000.00,028.7,025.8,000.0,036.9,030.4,14.5,0000.0,0002.60,0008.20,0001.97
2023-10-08 00:29:00,SystemResetWarning,0835.0,5.01,000.00,028.6,024.9,000.0,036.9,030.3,14.4,0000.0,0002.64,0008.67,0001.98
2023-10-08 00:30:00,SystemResetWarning,0835.0,5.01,000.00,028.6,024.9,000.0,036.8,030.1,14.3,0000.0,0002.60,0008.90,0001.97
2023-10-08 00:31:00,SystemResetWarning,0835.0,4.99,000.00,028.5,025.3,000.0,036.9,030.0,14.4,0000.0,0002.62,0009.18,0001.97
2023-10-08 00:32:00,SystemResetWarning,0835.0,5.00,000.00,028.5,025.7,000.0,036.9,030.0,14.3,0000.0,0002.61,0010.13,0001.98
2023-10-08 00:33:00,SystemResetWarning,0835.0,5.00,000.00,028.5,026.1,000.0,036.9,030.1,14.5,0000.0,0002.63,0010.39,0001.99
2023-10-08 00:34:00,SystemResetWarning,0835.0,5.00,000.00,028.5,026.4,000.0,036.9,030.1,14.4,0000.0,0002.70,0010.12,0002.01
2023-10-08 00:35:00,SystemResetWarning,0835.0,5.00,000.00,028.5,026.7,000.0,036.9,030.2,14.4,0000.0,0002.76,0010.95,0002.01
2023-10-08 00:36:00,SystemResetWarning,0835.0,5.00,000.00,028.5,026.9,000.0,036.9,030.3,14.3,0000.0,0002.83,0012.20,0002.03
2023-10-08 00:37:00,SystemResetWarning,0835.0,4.99,000.00,028.6,027.1,000.0,036.9,030.3,14.2,0000.0,0002.85,0012.82,0002.04
2023-10-08 00:38:00,SystemResetWarning,0835.0,4.99,000.00,028.6,027.3,000.0,036.9,030.4,14.2,0000.0,0002.87,0012.93,0002.05
2023-10-08 00:39:00,SystemResetWarning,0835.0,5.00,000.00,028.6,027.5,000.0,036.9,030.4,14.1,0000.0,0002.87,0012.54,0002.05
2023-10-08 00:40:00,SystemResetWarning,0835.0,5.02,000.00,028.7,027.6,000.0,037.0,030.5,14.1,0000.0,0002.83,0011.98,0002.05
2023-10-08 00:41:00,SystemResetWarning,0835.0,5.00,000.00,028.7,027.3,000.0,037.0,030.5,14.0,0000.0,0002.81,0011.48,0002.05
2023-10-08 00:42:00,SystemResetWarning,0835.0,4.98,000.00,028.7,025.5,000.0,036.9,030.2,14.0,0000.0,0002.82,0011.76,0002.07
2023-10-08 00:43:00,SystemResetWarning,0835.4,5.01,000.00,028.5,024.0,000.0,036.9,029.9,14.1,0000.0,0002.88,0011.42,0002.07
2023-10-08 00:44:00,SystemResetWarning,0835.3,5.01,000.00,028.4,024.0,000.0,036.8,029.8,14.2,0000.0,0002.87,0010.88,0002.08
2023-10-08 00:45:00,SystemResetWarning,0835.4,5.00,000.00,028.3,024.3,000.0,036.8,029.6,14.3,0000.0,0002.82,0011.60,0002.08
2023-10-08 00:46:00,SystemResetWarning,0835.3,5.00,000.00,028.2,024.8,000.0,036.8,029.7,14.3,0000.0,0002.80,0011.76,0002.09
2023-10-08 00:47:00,SystemResetWarning,0835.3,5.00,000.00,028.2,025.2,000.0,036.8,029.8,14.3,0000.0,0002.77,0010.71,0002.09
2023-10-08 00:48:00,SystemResetWarning,0835.3,5.00,000.00,028.2,025.7,000.0,036.8,029.8,14.3,0000.0,0002.77,0010.00,0002.09
2023-10-08 00:49:00,SystemResetWarning,0835.3,4.99,000.00,028.2,026.0,000.0,036.8,029.9,14.3,0000.0,0002.83,0009.74,0002.10
2023-10-08 00:50:00,SystemResetWarning,0835.3,5.00,000.00,028.3,026.3,000.0,036.8,030.0,14.3,0000.0,0002.88,0010.29,0002.11
2023-10-08 00:51:00,SystemResetWarning,0835.3,5.01,000.00,028.3,026.6,000.0,036.8,030.0,14.3,0000.0,0002.96,0011.22,0002.12
2023-10-08 00:52:00,SystemResetWarning,0835.2,5.01,000.00,028.3,026.8,000.0,036.8,030.1,14.2,0000.0,0003.02,0011.99,0002.12
2023-10-08 00:53:00,SystemResetWarning,0835.3,5.00,000.00,028.4,027.0,000.0,036.8,030.1,14.2,0000.0,0003.07,0011.43,0002.13
2023-10-08 00:54:00,SystemResetWarning,0835.4,5.00,000.00,028.4,027.2,000.0,036.8,030.2,14.2,0000.0,0003.11,0011.19,0002.14
2023-10-08 00:55:00,SystemResetWarning,0835.4,5.00,000.00,028.5,027.3,000.0,036.8,030.2,14.1,0000.0,0003.14,0011.13,0002.15
2023-10-08 00:56:00,SystemResetWarning,0835.4,5.00,000.00,028.5,027.4,000.0,036.8,030.3,14.1,0000.0,0003.15,0010.37,0002.16
2023-10-08 00:57:00,SystemResetWarning,0835.2,5.00,000.00,028.6,027.5,000.0,036.8,030.4,14.1,0000.0,0003.17,0009.88,0002.16
2023-10-08 00:58:00,SystemResetWarning,0835.3,5.00,000.00,028.6,027.6,000.0,036.9,030.4,14.4,0000.0,0003.19,0009.99,0002.17
2023-10-08 00:59:00,SystemResetWarning,0835.1,5.00,000.00,028.6,027.7,000.0,036.9,030.4,14.4,0000.0,0003.23,0010.38,0002.19
